Location: Unspecified
(52.4292°N, 19.3359°E)
Time: 23:16:03
(UTC+02:00)

A-11 Canister half - Pass Details

Date: 22 May 2024
Orbit: 1524 x 1683 km, 47.3° (Epoch: 19 June)

Event Time Altitude Azimuth Distance (km) Brightness Sun altitude
Rises 22:45:52 0° 236° (SW) 4,690 11.5 -12.9°
Reaches altitude 10° 22:48:57 10° 232° (SW) 3,722 10.9 -13.1°
Maximum altitude 22:58:00 54° 159° (SSE) 1,862 9.1 -13.7°
Drops below altitude 10° 23:07:20 10° 86° (E) 3,844 10.9 -14.3°
Sets 23:10:35 0° 82° (E) 4,853 11.5 -14.4°
